This is the latest recevied weather packets stored in our database for station/object K6CED. If no packets are shown the sender has not sent any weather packets the latest 10 day(s).
| Time | Temp. | Humidity | Pressure | Rain* | Wind** | Luminosity | Snow |
|---|---|---|---|---|---|---|---|
| 1777513247 | 18.89° C | 50% | 1016.6 hPa | 0 mm | - | 44 W/m² | - |
| 1777512943 | 19.44° C | 49% | 1016.5 hPa | 0 mm | - | 51 W/m² | - |
| 1777512639 | 20° C | 46% | 1016.4 hPa | 0 mm | - | 63 W/m² | - |
| 1777512336 | 20.56° C | 44% | 1016.1 hPa | 0 mm | - | 72 W/m² | - |
| 1777512033 | 20.56° C | 42% | 1016 hPa | 0 mm | - | 83 W/m² | - |
| 1777511732 | 20° C | 43% | 1016.2 hPa | 0 mm | - | 96 W/m² | - |
| 1777511428 | 20.56° C | 43% | 1016.3 hPa | 0 mm | - | 105 W/m² | - |
| 1777511125 | 20.56° C | 42% | 1016 hPa | 0 mm | - | 109 W/m² | - |
| 1777510820 | 21.11° C | 40% | 1015.9 hPa | 0 mm | - | 123 W/m² | - |
| 1777510518 | 21.11° C | 40% | 1015.8 hPa | 0 mm | - | 150 W/m² | - |
| 1777510214 | 21.11° C | 39% | 1016.1 hPa | 0 mm | - | 166 W/m² | - |
| 1777509910 | 21.11° C | 40% | 1015.9 hPa | 0 mm | - | 183 W/m² | - |
| 1777509606 | 21.11° C | 39% | 1016.1 hPa | 0 mm | - | 203 W/m² | - |
| 1777509303 | 21.67° C | 39% | 1016.2 hPa | 0 mm | - | 222 W/m² | - |
| 1777509000 | 21.67° C | 42% | 1016.2 hPa | 0 mm | - | 240 W/m² | - |
| 1777508697 | 21.67° C | 42% | 1016.1 hPa | 0 mm | - | 266 W/m² | - |
| 1777508394 | 21.67° C | 41% | 1016.3 hPa | 0 mm | - | 284 W/m² | - |
| 1777508091 | 21.67° C | 41% | 1016.3 hPa | 0 mm | - | 298 W/m² | - |
| 1777507788 | 21.67° C | 42% | 1016.3 hPa | 0 mm | - | 318 W/m² | - |
| 1777507485 | 21.67° C | 43% | 1016.3 hPa | 0 mm | - | 331 W/m² | - |
| 1777507182 | 21.67° C | 41% | 1016 hPa | 0 mm | - | 348 W/m² | - |
| 1777506879 | 22.78° C | 41% | 1016.1 hPa | 0 mm | - | 365 W/m² | - |
| 1777506577 | 22.78° C | 41% | 1016 hPa | 0 mm | - | 382 W/m² | - |
| 1777506272 | 22.22° C | 43% | 1016.2 hPa | 0 mm | - | 397 W/m² | - |
| 1777505969 | 22.22° C | 40% | 1016.1 hPa | 0 mm | - | 416 W/m² | - |
* Rain latest hour (hover to see other rain measurements)
** Current wind speed in m/s (hover to see current wind gust speed)